Zurück zum Katalog

ORBCOMM FM 16

AktivKommunikationLEO
NORAD 25417·PAYLOAD·🇺🇸 United States

Gestartet Aug 2, 1998 von Cape Canaveral Space Force Station

Loading…

Nächste Überflüge (nächste 24 Stunden)

TLE

AktuellSource: Space-Track

Epoche: Sep 14, 2026, 13:55 UTC

1 25417U 98046E   26257.58049135  .00000739  00000-0  27631-3 0  9994
2 25417  44.9926 172.4558 0004974  43.8175 316.3068 14.40208729469732

Verfolge ORBCOMM FM 16 in Echtzeit mit AllMySat

Download on the App Store